Meath Environmental Platform

Observations for Trim Patrick St

Time AQI Temp °C Hum % Pres Pa CO μg/m³ H₂S μg/m³ NO μg/m³ NO₂ μg/m³ O₃ μg/m³ SO₂ μg/m³ PM1 μg/m³ PM2.5 μg/m³ PM10 μg/m³
Sunday 2 August 2026
02:33 2 14.1 74 38,460 0.23 3.58 1.92 25.37 28.45 0 7.14 12.78 14.06
02:32 2 14.1 74 38,460 0.23 3.95 1.93 25.37 28.33 0 6.29 12.07 13.28
02:31 2 14.1 73 38,460 0.23 4.02 2 25.67 28.25 0 7.14 11.36 12.5
02:30 2 14.1 73 38,460 0.23 3.58 1.94 24.18 29.55 0 6.29 12.79 14.07
02:29 2 14.1 73 38,460 0.24 3.87 1.89 25.04 28.93 0 6.29 11.36 12.5
02:28 2 14.1 73 38,460 0.24 4 1.89 25.34 28.54 0 8.86 13.51 14.87
02:27 2 14.2 73 38,460 0.24 4.23 1.67 26.19 28.06 0 8.86 14.23 15.65
02:26 2 14.2 73 38,460 0.23 4.36 1.68 26.19 28.02 0 7.14 12.8 14.08
02:25 2 14.2 73 38,460 0.25 4.65 1.73 26.83 27.22 0 6.29 12.09 13.29
02:24 2 14.2 73 38,460 0.23 4.52 1.86 28.1 26.52 0 6.29 10.67 11.73
02:23 2 14.2 73 38,460 0.25 4.28 1.82 23.47 30.23 0 8 14.25 15.67
02:22 2 14.2 73 38,460 0.25 4.65 2.09 30.02 24.2 0 6.29 12.11 13.32
02:21 2 14.2 73 38,460 0.25 4.78 2.17 27.1 27.42 0 6.29 11.4 12.54
02:20 2 14.3 73 38,460 0.25 4.75 2.2 27.32 27.26 0 8 14.26 15.69
02:19 2 14.3 73 38,460 0.24 5.27 1.99 28.29 26.69 0 8 12.11 13.32
02:17 2 14.3 73 38,460 0.26 4.36 1.7 26.02 28.45 0 8 13.56 14.91
02:15 2 14.3 73 38,460 0.25 4.23 1.61 26.33 28.02 0 6.29 11.42 12.56
02:14 2 14.3 73 38,460 0.26 4.13 1.75 25.04 28.83 0 8 15 16.5
02:12 2 14.4 73 38,460 0.26 5.22 1.9 26.55 28.34 0 8.86 12.84 14.13
02:11 2 14.4 72 38,460 0.26 6.52 2.01 35.35 19.71 0 7.14 12.16 13.38